Location: Altmatt
(47.1333°N, 8.7000°E)
Time: 18:42:23
(UTC+00:00)

ERS-1 Rocket - Pass Details

Date: 13 July 2020
Orbit: 752 x 758 km, 98.5° (Epoch: 11 August)

Event Time Altitude Azimuth Distance (km) Brightness Sun altitude
Exits shadow 20:36:30 14° 150° (SSE) 2,029 4.6 -10.8°
Maximum altitude 20:40:49 63° 72° (ENE) 844 3.1 -11.3°
Drops below altitude 10° 20:45:48 10° 352° (N) 2,297 6.5 -11.8°
Sets 20:48:07 0° 349° (N) 3,225 7.4 -12.0°
